CW8739 Weather Reports


time (UTC)temp
F
wind
direction
speed
knots
gust
knots
rain 1hr
in
rain 24hr
in
rain mn
in
humidity
%
barometer
mb
20260507200347 55 244 3.5 9.6 0.08 3.35 0.67 95 1000.9
20260507194856 54 208 4.3 10.4 0.28 3.35 0.67 95 1000.8
20260507193338 54 173 6.1 8.7 0.51 3.35 0.67 95 1000.1
20260507191826 53 165 7.0 12.2 0.55 3.27 0.65 95 1000.0
20260507190408 54 190 6.1 10.4 0.71 3.27 0.65 95 1001.1
20260507184836 54 179 7.8 13.9 0.79 3.07 0.61 95 1001.5
20260507183328 55 188 6.1 14.8 0.83 2.83 0.57 95 1002.6
20260507181846 55 183 6.1 11.3 1.14 2.68 0.54 95 1002.3
20260507180359 56 184 6.1 16.5 1.50 2.56 0.51 95 1002.7
20260507174837 56 189 4.3 13.0 1.81 2.28 0.46 94 1002.9
20260507173330 56 179 6.1 10.4 1.97 2.01 0.40 94 1002.8
20260507171820 56 219 5.2 13.9 1.50 1.50 0.30 94 1003.5
20260507170343 57 217 7.8 13.9 1.06 1.06 0.21 93 1003.6
20260507164849 57 228 7.0 15.6 0.47 0.47 0.09 93 1003.5
20260507163332 57 180 15.6 25.2 0.04 0.04 0.01 91 1002.7
20260507161841 58 183 11.3 27.8 0.00 0.00 0.00 91 1002.8
20260507160342 58 175 14.8 26.9 0.00 0.00 0.00 90 1002.9
20260507154831 58 164 12.2 22.6 0.00 0.00 0.00 89 1003.4
20260507153355 58 179 13.9 25.2 0.00 0.00 0.00 88 1003.8
20260507151824 58 163 12.2 26.1 0.00 0.00 0.00 88 1004.2
20260507150348 58 168 15.6 25.2 0.00 0.00 0.00 88 1004.1
20260507144836 58 165 15.6 26.1 0.00 0.00 0.00 88 1004.8
20260507143329 57 200 13.9 27.8 0.00 0.00 0.00 88 1005.5
20260507141827 57 175 12.2 26.1 0.00 0.00 0.00 89 1005.3
20260507140342 57 180 13.9 26.1 0.00 0.00 0.00 88 1005.5
20260507134839 57 145 13.9 25.2 0.00 0.00 0.00 86 1005.9
20260507133334 59 179 16.5 31.3 0.00 0.00 0.00 83 1006.1
20260507131824 59 184 13.9 27.8 0.00 0.00 0.00 83 1006.0
20260507130328 58 182 13.9 23.5 0.00 0.00 0.00 84 1006.3
20260507124838 58 186 11.3 26.1 0.00 0.00 0.00 85 1006.4
20260507123332 58 174 13.0 21.7 0.00 0.00 0.00 85 1006.8
20260507121830 58 171 11.3 24.3 0.00 0.00 0.00 85 1006.9
20260507120323 59 175 10.4 33.0 0.00 0.00 0.00 84 1006.8
20260507114842 59 176 12.2 30.4 0.00 0.00 0.00 85 1006.6
20260507113354 58 175 19.1 33.0 0.00 0.00 0.00 84 1006.2
20260507111819 58 190 13.9 29.5 0.00 0.00 0.00 86 1006.8
20260507110344 57 196 15.6 26.9 0.00 0.00 0.00 88 1007.0
20260507104833 57 192 16.5 25.2 0.00 0.00 0.00 89 1006.8
20260507103346 56 209 11.3 24.3 0.00 0.00 0.00 89 1007.1
20260507101824 56 179 15.6 26.1 0.00 0.00 0.00 90 1007.3
20260507100333 56 178 13.9 26.1 0.00 0.00 0.00 90 1007.3
20260507094822 56 192 15.6 33.0 0.00 0.00 0.00 91 1007.4
20260507093325 55 161 16.5 29.5 0.00 0.00 0.00 92 1007.5
20260507091835 56 204 21.7 31.3 0.00 0.00 0.00 90 1007.6
20260507090338 55 188 9.6 20.0 0.00 0.00 0.00 88 1008.1
20260507084848 55 176 7.0 13.9 0.00 0.00 0.00 87 1007.9
20260507083351 54 180 6.1 13.9 0.00 0.00 0.00 87 1008.6
20260507081820 54 185 5.2 13.0 0.00 0.00 0.00 86 1009.4
20260507080343 54 181 7.8 17.4 0.00 0.00 0.00 87 1009.8
20260507074832 53 192 5.2 8.7 0.00 0.00 0.00 87 1009.9
20260507073327 53 206 2.6 13.0 0.00 0.00 0.00 88 1010.0
20260507071845 52 201 5.2 13.0 0.00 0.00 0.00 88 1010.0
20260507070338 52 190 10.4 15.6 0.00 0.00 0.00 89 1009.8
20260507064837 52 199 6.1 12.2 0.00 0.00 0.00 89 1010.8
20260507063329 52 200 5.2 13.0 0.00 0.00 0.00 88 1011.3
20260507061848 52 202 7.0 13.9 0.00 0.00 0.00 87 1011.6
20260507060409 53 196 7.0 16.5 0.00 0.00 0.00 87 1011.5
20260507054838 53 187 10.4 18.2 0.00 0.00 0.00 87 1011.6
20260507053333 52 188 7.0 16.5 0.00 0.00 0.00 87 1011.6
20260507051823 52 161 7.0 16.5 0.00 0.00 0.00 87 1011.8
20260507050325 51 196 7.0 13.9 0.00 0.00 0.00 87 1012.1
20260507044831 51 183 7.0 11.3 0.00 0.00 0.00 87 1012.9
20260507043354 51 182 5.2 9.6 0.00 0.00 0.00 87 1013.2
20260507041823 51 197 4.3 10.4 0.00 0.00 0.00 87 1013.5
20260507040404 52 198 5.2 10.4 0.00 0.00 0.00 86 1013.9
20260507034833 52 197 5.2 13.9 0.00 0.00 0.00 85 1014.1
20260507033326 52 179 5.2 15.6 0.00 0.00 0.00 85 1014.3
20260507031845 53 190 7.8 13.9 0.00 0.00 0.00 85 1014.7
20260507030335 53 192 5.2 12.2 0.00 0.00 0.00 85 1015.0
20260507024825 53 198 5.2 10.4 0.00 0.00 0.00 85 1015.2
20260507023349 53 199 5.2 12.2 0.00 0.00 0.00 84 1015.3
20260507021859 53 187 7.0 12.2 0.00 0.00 0.00 84 1015.4
20260507020340 53 188 2.6 10.4 0.00 0.00 0.00 84 1015.5
20260507014829 53 206 6.1 14.8 0.00 0.00 0.00 83 1015.3
20260507013323 54 195 6.1 13.9 0.00 0.00 0.00 82 1015.4
20260507011842 54 209 7.0 18.2 0.00 0.00 0.00 82 1015.3
20260507010335 55 180 7.8 17.4 0.00 0.00 0.00 80 1015.2
20260507004825 55 206 9.6 18.2 0.00 0.00 0.00 79 1015.1
20260507003348 56 188 9.6 19.1 0.00 0.00 0.00 78 1014.8
20260507001836 57 186 7.0 21.7 0.00 0.00 0.00 77 1014.9
20260507000329 58 183 10.4 19.1 0.00 0.00 0.00 75 1015.0
20260506234847 59 173 12.2 24.3 0.00 0.00 0.00 73 1014.8
20260506233348 60 200 15.6 26.1 0.00 0.00 0.00 72 1014.8
20260506231838 61 196 12.2 30.4 0.00 0.00 0.00 71 1014.7
20260506230331 61 198 12.2 24.3 0.00 0.00 0.00 70 1014.4
20260506224820 62 202 8.7 26.1 0.00 0.00 0.00 69 1014.3
20260506223342 62 184 13.0 26.1 0.00 0.00 0.00 69 1014.5
20260506221831 63 212 10.4 33.0 0.00 0.00 0.00 68 1014.2
20260506220335 64 213 15.6 25.2 0.00 0.00 0.00 67 1014.0
20260506214824 64 191 13.0 27.8 0.00 0.00 0.00 66 1014.0
20260506213346 65 206 12.2 25.2 0.00 0.00 0.00 65 1014.0
20260506211836 65 191 13.9 26.9 0.00 0.00 0.00 65 1014.1
20260506210330 66 214 13.0 26.1 0.00 0.00 0.00 63 1014.3
20260506204843 66 219 15.6 31.3 0.00 0.00 0.00 59 1014.1
20260506203336 66 202 13.9 26.9 0.00 0.00 0.00 63 1014.1
20260506201825 67 206 15.6 26.1 0.00 0.00 0.00 61 1014.0